Weather History for Las Vegas, NV

Change the Weather History Date:

Wednesday, February 6, 2013

  Actual Average Record
Temperature  
Mean Temperature 60 °F 51 °F  
Max Temperature 70 °F 61 °F 78 °F (1963)
Min Temperature 49 °F 42 °F 19 °F (1982)
Degree Days  
Heating Degree Days 5 14  
Month to date heating degree days 47 86  
Since 1 July heating degree days 1311 1438  
Cooling Degree Days 0 0  
Month to date cooling degree days 0 0  
Year to date cooling degree days 0 0  
Growing Degree Days 9 (Base 50)    
Moisture  
Dew Point 21 °F    
Average Humidity 29    
Maximum Humidity 46    
Minimum Humidity 11    
Precipitation  
Precipitation 0.00 in 0.02 in 1.19 in (1976)
Month to date precipitation 0.00 0.13  
Year to date precipitation 0.43 0.67  
Snow  
Snow 0.00 in 0.00 in 0.00 in (2013)
Month to date snowfall 0.0 0.0  
Since 1 July snowfall T 0.2  
Snow Depth 0.00 in    
Sea Level Pressure  
Sea Level Pressure 29.89 in    
Wind  
Wind Speed 7 mph (WSW)    
Max Wind Speed 16 mph    
Max Gust Speed 25 mph    
Visibility 10 miles    
Events      
T = Trace of Precipitation, MM = Missing Value Source: NWS Daily Summary

Daily Weather History Graph

Daily Weather History Graph

Search for Another Location

Airport:

Trip Planner

Search our weather history database for the weather conditions in past years. The results will help you decide how hot, cold, wet, or windy it might be!

Date:

Astronomy

Feb. 06, 2013 Rise Set
Actual Time 6:36 AM PST 5:13 PM PST
Civil Twilight 6:10 AM PST 5:39 PM PST
Nautical Twilight 5:39 AM PST 6:10 PM PST
Astronomical Twilight 5:09 AM PST 6:40 PM PST
Moon 3:21 AM PST (2/6) 1:39 PM PST (2/6)
Length of Visible Light 11h 29m
Length of Day
10h 36m
Waning Crescent, 16% of the Moon is Illuminated
Feb 6
Waning Crescent
Feb 9
New
Feb 17
First Quarter
Feb 25
Full
Mar 4
Last Quarter

Hourly Weather History & Observations

Time (PST) Temp. Dew Point Humidity Pressure Visibility Wind Dir Wind Speed Gust Speed Precip Events Conditions
12:56 AM 54.0 °F 28.9 °F 38% 29.78 in 10.0 mi WSW 8.1 mph - N/A   Overcast
1:56 AM 53.6 °F 28.4 °F 38% 29.81 in 10.0 mi SW 3.5 mph - N/A   Overcast
2:56 AM 53.1 °F 28.0 °F 38% 29.78 in 10.0 mi SSW 4.6 mph - N/A   Mostly Cloudy
3:56 AM 52.0 °F 28.0 °F 40% 29.79 in 10.0 mi West 5.8 mph - N/A   Scattered Clouds
4:56 AM 50.0 °F 28.4 °F 43% 29.84 in 10.0 mi WSW 6.9 mph - N/A   Partly Cloudy
5:56 AM 51.1 °F 27.0 °F 39% 29.83 in 10.0 mi SW 6.9 mph - N/A   Partly Cloudy
6:56 AM 48.9 °F 28.0 °F 44% 29.86 in 10.0 mi WSW 5.8 mph - N/A   Clear
7:56 AM 53.1 °F 28.9 °F 40% 29.88 in 10.0 mi South 8.1 mph - N/A   Clear
8:56 AM 59.0 °F 26.1 °F 28% 29.89 in 10.0 mi Calm Calm - N/A   Clear
9:56 AM 61.0 °F 27.0 °F 27% 29.91 in 10.0 mi SSW 10.4 mph - N/A   Clear
10:56 AM 66.0 °F 21.0 °F 18% 29.90 in 10.0 mi NW 13.8 mph 18.4 mph N/A   Clear
11:56 AM 66.9 °F 19.9 °F 17% 29.88 in 10.0 mi North 8.1 mph - N/A   Clear
12:56 PM 68.0 °F 19.0 °F 15% 29.88 in 10.0 mi NNW 12.7 mph - N/A   Partly Cloudy
1:56 PM 69.1 °F 16.0 °F 13% 29.87 in 10.0 mi WNW 13.8 mph 20.7 mph N/A   Partly Cloudy
2:56 PM 69.1 °F 12.9 °F 11% 29.88 in 10.0 mi WNW 11.5 mph - N/A   Partly Cloudy
3:56 PM 68.0 °F 17.1 °F 14% 29.89 in 10.0 mi Variable 5.8 mph - N/A   Partly Cloudy
4:56 PM 66.0 °F 16.0 °F 15% 29.90 in 10.0 mi NW 8.1 mph - N/A   Partly Cloudy
5:56 PM 64.0 °F 15.1 °F 15% 29.92 in 10.0 mi WSW 4.6 mph - N/A   Clear
6:56 PM 62.1 °F 14.0 °F 15% 29.94 in 10.0 mi SW 9.2 mph - N/A   Clear
7:56 PM 57.0 °F 15.1 °F 19% 29.96 in 10.0 mi West 3.5 mph - N/A   Clear
8:56 PM 55.9 °F 14.0 °F 19% 29.98 in 10.0 mi SSW 6.9 mph - N/A   Clear
9:56 PM 54.0 °F 14.0 °F 21% 29.99 in 10.0 mi SW 8.1 mph - N/A   Clear
10:56 PM 54.0 °F 12.9 °F 20% 30.00 in 10.0 mi SW 6.9 mph - N/A   Clear
11:56 PM 50.0 °F 16.0 °F 26% 30.01 in 10.0 mi SSW 5.8 mph - N/A   Clear